Showing default

SYNCOM 1, 553

Orbit data source: Space-Track

SYNCOM 1, 553 is a payload satellite owned by GSFC (US) that was launched on Thu, 14 Feb 1963 UTC via a THOR DELTA B launch vehicle from the Air Force Eastern Test Range (AFETR). Payload-class satellites include a variety of spacecraft equipped with specific instruments for various scientific and technological missions. These include communications satellites like Starlink; space stations such as the ISS; scientific satellites like the Hubble; Earth observation satellites from companies like Planet Labs, Umbra, and HawkEye 360; GPS; miniature CubeSats for education and research; and military/defense satellites.

Not visible in the next 10 days
Identifier
553, 1963-004A
Orbit
Active
Country
Flag of USUS
Related business
Manufacturer
Hughes
Mission
Non-operational spacecraft
Bus & Motor
HS-301, TE-M-375
Mass
68 kg wet, ~27 kg dry
Launch date (UTC)
1963-02-14 (63 years ago)
Launch vehicle
THOR DELTA B
Launch site
Air Force Eastern Test Range (AFETR)
Object type
Payload
Rocket body
Debris
Shape & HBR
Unknown
Radar Cross Section
RCS unknown

Expand to show TLE details & history
Last TLE update: 1 week ago

TLE from 1 week ago
0 SYNCOM 1
1 00553U 63004A   26029.55275318 -.00000068  00000-0  00000-0 0  9996
2 00553  26.9942 275.6124 0797722 197.1323 160.0820  1.16483595 34448
Epoch: 2026-01-29T13:15Z
TLE epoch observation values (Epoch: 2026-01-29T13:15:57.874Z)
Latitude
0.00001°
Longitude
-52.12336°
Altitude
34,674.07 km
Speed
2.995 km/s
True Right ascension
18h 22m 41s
True Declination
0° 00' 00"
Sunlit
Object was in daylight at epoch
Visualization orbit readout
Latitude
Unknown
Longitude
Unknown
Altitude
Unknown
Speed
Unknown
Apparent Right ascension
Unknown
Apparent Declination
Unknown
Sunlit
N/A
Visualization observer readout
Local Sidereal Time
07:24:34
Azimuth
Unknown
Elevation
Unknown
Doppler factor
Unknown
Orbital elements
Apogee altitude
34,822.15 km
Perigee altitude
28,734.5 km
Semi-major axis
38,156.462 km
Eccentricity
0.07977
Inclination
26.9942°
RAAN
275.6124°
Arg. of periapsis
197.1323°
True anomaly
162.9273°
Mean anomaly
160.082°
Eccentric anomaly
161.53001°
Mean motion
0.2912 °/min
Orbital period
1,236.26 mins
BSTAR
0
Loading maneuver chart data...
Computing Atmospheric mass density...
Loading historical data...
Loading historical data...
Loading historical data...
Loading historical data...
Loading historical data...
Loading historical data...
Loading historical data...
Other satellites on launch #4 in the year 1963 (1963-02-14 UTC)

Documentation

Showing up to 5 results
|